Location: Oklahoma City
(35.4680°N, 97.5160°W)
Time: 20:29:21
(UTC-05:00)

ISS - All Passes

Search period start: 23 April 2017 00:00
Search period end: 03 May 2017 00:00
Orbit: 400 x 409 km, 51.6° (Epoch: 24 April)

Date Brightness Start Highest point End Pass type
(mag) Time Alt. Az. Time Alt. Az. Time Alt. Az.
23 Apr - 10:17:58 10° SW 10:21:11 87° NW 10:24:27 10° NE daylight
23 Apr - 11:56:39 10° NW 11:58:06 12° NNW 11:59:32 10° N daylight
23 Apr - 16:48:27 10° NNW 16:51:19 27° NE 16:54:10 10° E daylight
23 Apr - 18:25:01 10° WNW 18:27:42 24° SW 18:30:22 10° S daylight
24 Apr - 09:25:56 10° SSW 09:29:01 41° SE 09:32:05 10° ENE daylight
24 Apr - 11:03:12 10° W 11:05:37 19° NNW 11:08:02 10° NNE daylight
24 Apr - 15:56:40 10° NNW 15:58:53 17° NNE 16:01:05 10° ENE daylight
24 Apr - 17:32:24 10° WNW 17:35:34 51° SW 17:38:43 10° SSE daylight
25 Apr - 08:34:29 10° S 08:36:53 19° SE 08:39:19 10° E daylight
25 Apr - 10:10:14 10° WSW 10:13:12 32° NW 10:16:10 10° NNE daylight
25 Apr - 15:05:22 10° N 15:06:21 11° NNE 15:07:21 10° NE daylight
25 Apr - 16:40:06 10° NW 16:43:20 70° NE 16:46:34 10° SE daylight
26 Apr - 09:17:38 10° SW 09:20:52 66° NW 09:24:06 10° NE daylight
26 Apr - 10:57:02 10° NW 10:57:52 11° NNW 10:58:42 10° N daylight
26 Apr - 15:48:00 10° NNW 15:51:00 34° NE 15:54:00 10° ESE daylight
26 Apr - 17:24:57 10° W 17:27:17 18° SW 17:29:37 10° S daylight
27 Apr - 08:25:26 10° SSW 08:28:36 55° SE 08:31:48 10° ENE daylight
27 Apr - 10:03:10 10° WNW 10:05:18 16° NNW 10:07:27 10° NNE daylight
27 Apr - 14:56:06 10° NNW 14:58:34 20° NNE 15:01:02 10° E daylight
27 Apr - 16:32:06 10° WNW 16:35:08 38° SW 16:38:11 10° SSE daylight
28 Apr - 07:33:42 10° S 07:36:25 25° SE 07:39:09 10° ENE daylight
28 Apr - 09:10:01 10° W 09:12:49 26° NW 09:15:39 10° NNE daylight
28 Apr - 14:04:29 10° N 14:06:03 13° NNE 14:07:34 10° NE daylight
28 Apr - 15:39:39 10° NW 15:42:54 88° WSW 15:46:09 10° SE daylight
29 Apr - 06:42:56 10° SSE 06:44:18 12° SE 06:45:40 10° ESE daylight
29 Apr - 08:17:15 10° WSW 08:20:26 50° NW 08:23:36 10° NE daylight
29 Apr - 14:47:28 10° NW 14:50:35 42° NE 14:53:41 10° ESE daylight
29 Apr - 16:24:55 10° W 16:26:45 14° SW 16:28:35 10° SSW daylight
30 Apr - 07:24:51 10° SW 07:28:06 74° SE 07:31:20 10° NE daylight
30 Apr - 09:03:05 10° WNW 09:04:54 14° NNW 09:06:43 10° N daylight
30 Apr - 13:55:27 10° NNW 13:58:09 23° NNE 14:00:49 10° E daylight
30 Apr - 15:31:44 10° WNW 15:34:36 29° SW 15:37:28 10° SSE daylight
01 May - 06:32:53 10° SSW 06:35:51 32° SE 06:38:48 10° ENE daylight
01 May - 08:09:43 10° W 08:12:21 22° NNW 08:14:59 10° NNE daylight
01 May - 13:03:40 10° N 13:05:35 15° NNE 13:07:32 10° ENE daylight
01 May - 14:39:08 10° NW 14:42:22 67° SW 14:45:34 10° SE daylight
02 May - 05:41:37 10° SSE 05:43:40 16° SE 05:45:42 10° E visible
02 May - 07:16:47 10° WSW 07:19:52 39° NW 07:22:58 10° NE daylight
02 May - 13:46:49 10° NW 13:50:01 55° NE 13:53:12 10° ESE daylight
02 May - 15:25:09 10° WSW 15:26:06 11° SW 15:27:03 10° SW daylight
